P/2001 T3 ( NEAT ) 2018

Japanese version
Home page
Updated on July 8, 2017

---------------------------------------------------------------------

* Profile

* Orbital Elements

Perturbed ephemeris below is based on elements from MPC 44504. 

 Epoch = 2458280.50000 TT   T = 2458280.76097 TT
 Peri. =  356.78292         a =     6.4468061 AU
 Node  =   55.16326 J2000.0 e =     0.6144835
 Incl. =   19.39755         q =     2.4853504 AU

* Magnitudes Graph

        m1 = 3.5 + 5 log d + 30.0

---------------------------------------------------------------------

The orbital elements are calculated using the Minor Planet & Comet Ephemeris Service.
The magnitudes graphs are made with Comet for Windows.

---------------------------------------------------------------------

Copyright(C) Seiichi Yoshida (comet@aerith.net). All rights reserved.